Showing default

COSMOS 1566, 15005

Orbit data source: Space-Track

COSMOS 1566, 15005 is a payload satellite owned by GUKOS (CIS) in LEO that was launched on Mon, 28 May 1984 UTC via a KOSMOS 11K65M launch vehicle from the Plesetsk Missile And Space Complex (PKMTR). Payload-class satellites include a variety of spacecraft equipped with specific instruments for various scientific and technological missions. These include communications satellites like Starlink; space stations such as the ISS; scientific satellites like the Hubble; Earth observation satellites from companies like Planet Labs, Umbra, and HawkEye 360; GPS; miniature CubeSats for education and research; and military/defense satellites.

Loading next visibility...
Identifier
15005, 1984-052H
Orbit
LEO
Country
Flag of CISCIS
Related business
Manufacturer
NPO PM
Mission
Defense Communications
Bus & Motor
STRELA-1 11F625, Unknown motor
Mass
60 kg wet, 60 kg dry
Launch date (UTC)
1984-05-28 (41 years ago)
Launch vehicle
KOSMOS 11K65M
Launch site
Plesetsk Missile And Space Complex (PKMTR)
Object type
Payload
Rocket body
Debris
Shape & HBR
Sphere, 0.4 m
Radar Cross Section
0.588 m², Medium (>0.1 m² and < 1m²)

Expand to show TLE details & history
Last TLE update: 8 hours ago

TLE from 8 hours ago
0 COSMOS 1566
1 15005U 84052H   25258.64116315 -.00000006  00000-0  62932-4 0  9992
2 15005  74.0132  42.0069 0051424 188.5606 184.0056 12.57377998895601
Epoch: 2025-09-15T15:23Z
TLE epoch observation values (Epoch: 2025-09-15T15:23:16.496Z)
Latitude
11.99963°
Longitude
179.81931°
Altitude
1,475.506 km
Speed
7.108 km/s
True Right ascension
03h 01m 55s
True Declination
11° 56' 11"
Sunlit
Object was in full shadow at epoch
Visualization orbit readout
Latitude
Unknown
Longitude
Unknown
Altitude
Unknown
Speed
Unknown
Apparent Right ascension
Unknown
Apparent Declination
Unknown
Sunlit
N/A
Visualization observer readout
Local Sidereal Time
15:48:21
Azimuth
Unknown
Elevation
Unknown
Doppler factor
Unknown
Orbital elements
Apogee altitude
1,471.774 km
Perigee altitude
1,391.453 km
Semi-major axis
7,809.75 km
Eccentricity
0.00514
Inclination
74.0132°
RAAN
42.0069°
Arg. of periapsis
188.5606°
True anomaly
183.9647°
Mean anomaly
184.0056°
Eccentric anomaly
183.98512°
Mean motion
3.14476 °/min
Orbital period
114.48 mins
BSTAR
0.000062932
Loading maneuver chart data...
Computing Atmospheric mass density...
Loading historical data...
Loading historical data...
Loading historical data...
Loading historical data...
Loading historical data...
Loading historical data...
Loading historical data...

Documentation

Showing up to 5 results
|